Omaha, IA

11:57 AM CDT on August 18, 2017 (GMT -0500)
Eppley Airfield

Weather History for KOMA - November, 2013

Change the Weather History Date:

Friday, November 1, 2013

  Actual Average Record
Temperature  
Mean Temperature 51 °F 46 °F  
Max Temperature 61 °F 57 °F 80 °F (1887)
Min Temperature 40 °F 36 °F 17 °F (1911)
Degree Days  
Heating Degree Days 14 19  
Month to date heating degree days 14 19  
Since 1 July heating degree days 421 504  
Cooling Degree Days 0 0  
Month to date cooling degree days 0 0  
Year to date cooling degree days 1294 1112  
Moisture  
Dew Point 37 °F    
Average Humidity 61    
Maximum Humidity 85    
Minimum Humidity 37    
Precipitation  
Precipitation T in 0.06 in 1.38 in (1992)
Month to date precipitation T 0.06  
Year to date precipitation 27.74 28.00  
Snow  
Snow 0.00 in 0.00 in - ()
Month to date snowfall 0.0 0.0  
Since 1 July snowfall 0.0 0.3  
Snow Depth 0.00 in    
Sea Level Pressure  
Sea Level Pressure 29.80 in    
Wind  
Wind Speed 14 mph (NW)    
Max Wind Speed 29 mph    
Max Gust Speed 41 mph    
Visibility 10 miles    
Events Rain    
T = Trace of Precipitation, MM = Missing Value Source: NWS Daily Summary

Daily Weather History Graph

Daily Weather History Graph

Search for Another Location

Airport or City:

Trip Planner

Search our weather history database for the weather conditions in past years. The results will help you decide how hot, cold, wet, or windy it might be!

Date:

Astronomy

Nov. 01, 2013 Rise Set
Actual Time 7:55 AM CDT 6:18 PM CDT
Civil Twilight 7:26 AM CDT 6:47 PM CDT
Nautical Twilight 6:53 AM CDT 7:19 PM CDT
Astronomical Twilight 6:21 AM CDT 7:51 PM CDT
Moon 5:47 AM CDT (11/1) 5:12 PM CDT (11/1)
Length of Visible Light 11h 20m
Length of Day
10h 23m
Waning Crescent, 4% of the Moon is Illuminated
Nov 1
Waning Crescent
Nov 3
New
Nov 9
First Quarter
Nov 17
Full
Nov 25
Last Quarter

Hourly Weather History & Observations

Time (CDT) Temp. Windchill Dew Point Humidity Pressure Visibility Wind Dir Wind Speed Gust Speed Precip Events Conditions
12:52 AM 45.0 °F 41.2 °F 35.1 °F 68% 29.61 in 10.0 mi West 6.9 mph - N/A   Scattered Clouds
1:52 AM 43.0 °F 38.8 °F 35.1 °F 74% 29.62 in 10.0 mi WNW 6.9 mph - N/A   Scattered Clouds
2:52 AM 42.1 °F 40.2 °F 35.1 °F 76% 29.64 in 10.0 mi West 3.5 mph - N/A   Scattered Clouds
3:52 AM 39.9 °F 35.1 °F 35.1 °F 83% 29.65 in 10.0 mi WNW 6.9 mph - N/A   Partly Cloudy
4:52 AM 43.0 °F 37.7 °F 37.0 °F 80% 29.67 in 10.0 mi NW 9.2 mph - N/A   Partly Cloudy
5:52 AM 43.0 °F 38.2 °F 36.0 °F 76% 29.69 in 10.0 mi WNW 8.1 mph - N/A   Partly Cloudy
6:52 AM 43.0 °F 37.2 °F 37.0 °F 80% 29.71 in 10.0 mi NW 10.4 mph - N/A   Mostly Cloudy
7:52 AM 43.0 °F 37.7 °F 37.0 °F 80% 29.73 in 10.0 mi West 9.2 mph - N/A   Mostly Cloudy
8:52 AM 43.0 °F 41.3 °F 37.0 °F 80% 29.77 in 10.0 mi NW 3.5 mph - N/A   Mostly Cloudy
9:52 AM 46.9 °F - 37.9 °F 71% 29.78 in 10.0 mi NW 11.5 mph - N/A   Mostly Cloudy
10:52 AM 52.0 °F - 39.9 °F 63% 29.80 in 10.0 mi NW 15.0 mph 20.7 mph N/A   Mostly Cloudy
11:52 AM 54.0 °F - 39.9 °F 59% 29.80 in 10.0 mi WNW 15.0 mph - N/A   Scattered Clouds
12:52 PM 57.0 °F - 37.0 °F 47% 29.80 in 10.0 mi NW 20.7 mph 33.4 mph N/A   Scattered Clouds
1:52 PM 60.1 °F - 37.0 °F 42% 29.80 in 10.0 mi NW 21.9 mph 27.6 mph N/A   Scattered Clouds
2:52 PM 60.1 °F - 35.1 °F 39% 29.80 in 10.0 mi WNW 21.9 mph 26.5 mph N/A   Scattered Clouds
3:52 PM 59.0 °F - 34.0 °F 39% 29.80 in 10.0 mi NW 17.3 mph 26.5 mph N/A   Mostly Cloudy
4:52 PM 57.0 °F - 36.0 °F 45% 29.82 in 10.0 mi NNW 17.3 mph 21.9 mph 0.00 in Rain Light Rain
5:52 PM 50.0 °F - 39.0 °F 66% 29.87 in 10.0 mi NW 19.6 mph 31.1 mph 0.00 in Rain Light Rain
6:52 PM 48.0 °F - 37.9 °F 68% 29.90 in 10.0 mi WNW 10.4 mph - 0.00 in   Scattered Clouds
7:52 PM 48.0 °F - 39.0 °F 71% 29.92 in 10.0 mi WNW 12.7 mph - N/A   Mostly Cloudy
8:52 PM 48.0 °F - 37.0 °F 66% 29.95 in 10.0 mi NNW 24.2 mph 35.7 mph 0.00 in   Mostly Cloudy
9:52 PM 46.9 °F - 37.9 °F 71% 29.96 in 10.0 mi NW 16.1 mph - N/A   Overcast
10:52 PM 46.9 °F - 39.0 °F 74% 29.98 in 10.0 mi NW 15.0 mph 23.0 mph N/A   Overcast
11:14 PM 46.4 °F 39.8 °F 39.2 °F 76% 29.98 in 10.0 mi NW 16.1 mph - N/A   Overcast
11:52 PM 46.9 °F - 37.9 °F 71% 29.99 in 10.0 mi NW 15.0 mph 24.2 mph N/A   Overcast